Content
SEND FEEDBACK

Daily
Averages
Monthly
Summary
United States of America

UNDERHILL, VERMONT


Home > North America > United States > Vermont
Elevation: 3807 feet     Latitude: 44 32N     Longitude: 072 49W

WEATHER
 
SELECT A DAY
Number of Records: 217,333;   Date Range: 7/1/96 - 9/22/14
 
SHARE

PRINT THIS DATA

[ ← Previous Day ]
WEATHER ALMANAC - JANUARY 31, 2013
[ Next Day → ]
[ °C ]   °F
Weather ElementAverageHighLow
Temperature39.9 °F48.2 °F (12:28 am)21.9 °F (11:54 pm)
Dewpoint33 °F46.4 °F (12:28 am)3 °F (9:54 pm)
Humidity78.6 %100 % (12:34 am)40 % (9:54 pm)
Barometer29.11 in29.51 in (11:54 pm)28.81 in (6:59 am)
Wind Speed5.8 mph17.3 mph (2:54 pm)
Wind Gust34.5 mph (5:54 pm)
Weather ElementAverage
Visibility4.8 mi
Wind DirectionESE (123.2 °)

Weather ElementTotal
Precipitation0.94 in
Heating Degree Days30 (Base 65)
Averaged from 47 records on January 31, 2013
WEATHER CONDITIONS BREAKOUT
WIND DIRECTION BREAKOUT
WEATHER BY HOUR - JANUARY 31, 2013
[ °C ]   °F
Local TimeTemperatureDewpointHumidityBarometerVisibilityWind DirectionWind SpeedGust SpeedPrecipitationEventsConditions
12:28 AM48.2 °F46.4 °F93 %29.25 in1.8 miCalm0.02 inRainLight Rain
12:34 AM46.4 °F46.4 °F100 %29.24 in0.8 miCalm0.03 inRainLight Rain
12:54 AM46.0 °F44.1 °F93 %29.25 in1.0 miSSW (200°)3.5 mph0.05 inRainLight Rain
1:01 AM46.4 °F46.4 °F100 %29.22 in2.0 miSSW (200°)4.6 mph0.01 inRainLight Rain
1:08 AM48.2 °F46.4 °F93 %29.22 in5.0 miCalm0.01 inRainLight Rain
1:14 AM46.4 °F46.4 °F100 %29.21 in1.5 miCalm0.01 inRainLight Rain
1:17 AM46.4 °F44.6 °F93 %29.20 in0.8 miCalm0.02 inRainLight Rain
1:54 AM43.0 °F42.1 °F97 %29.18 in0.2 miCalm0.04 inFog-RainLight Rain
2:26 AM46.4 °F44.6 °F93 %29.13 in1.2 miSSW (200°)3.5 mph0.01 inRainLight Rain
2:39 AM46.4 °F44.6 °F93 %29.11 in2.0 miCalm0.02 inRainLight Rain
2:54 AM46.9 °F46.0 °F97 %29.10 in8.0 miCalm0.03 inRainLight Rain
3:54 AM46.0 °F45.0 °F96 %29.03 in6.0 miCalm0.04 inRainLight Rain
3:58 AM46.4 °F44.6 °F93 %29.02 in1.5 miCalm0.00 inRainLight Rain
4:00 AM46.4 °F44.6 °F93 %29.02 in0.8 miCalm0.00 inRainLight Rain
4:45 AM44.6 °F42.8 °F93 %28.95 in1.2 miSSE (160°)3.5 mph0.03 inRainLight Rain
4:54 AM45.0 °F43.0 °F93 %28.95 in1.5 miCalm0.05 inRainLight Rain
5:01 AM44.6 °F42.8 °F93 %28.94 in0.8 miCalm0.01 inRainLight Rain
5:42 AM46.4 °F44.6 °F93 %28.91 in1.2 miSouth (190°)3.5 mph0.05 inRainRain
5:54 AM44.1 °F43.0 °F96 %28.91 in1.5 miSSE (160°)4.6 mph0.08 inRainRain
5:58 AM44.6 °F42.8 °F93 %28.90 in3.0 miSSE (160°)5.8 mph0.01 inRainRain
6:17 AM44.6 °F44.6 °F100 %28.88 in1.8 miSSE (160°)3.5 mph0.04 inRainLight Rain
6:38 AM46.4 °F44.6 °F93 %28.84 in3.0 miCalm0.07 inRainLight Rain
6:48 AM44.6 °F44.6 °F100 %28.84 in2.5 miCalm0.07 inRainLight Rain
6:59 AM44.6 °F42.8 °F93 %28.81 in0.8 miCalmOvercast
7:43 AM46.4 °F44.6 °F93 %28.86 in1.2 miVariable6.9 mph18.4 mph0.05 inRainRain
7:48 AM44.6 °F44.6 °F100 %28.87 in3.0 miVariable5.8 mph18.4 mph0.05 inRainLight Rain
7:54 AM44.1 °F42.1 °F93 %28.88 in9.0 miWNW (300°)8.1 mph20.7 mph0.05 inRainLight Rain
8:54 AM42.1 °F37.0 °F82 %28.96 in7.0 miVariable4.6 mph0.04 inRainLight Rain
9:14 AM41.0 °F35.6 °F81 %28.97 in5.0 miVariable5.8 mph0.01 inRainLight Rain
9:52 AM39.2 °F32.0 °F75 %28.99 in10.0 miVariable4.6 mph0.02 inRainLight Rain
9:54 AM39.0 °F32.0 °F76 %29.01 in10.0 miVariable4.6 mph0.02 inRainLight Rain
10:54 AM37.9 °F28.0 °F68 %29.04 in10.0 miWSW (250°)8.1 mph24.2 mph0.00 inMostly Cloudy
11:54 AM37.9 °F21.9 °F53 %29.09 in10.0 miWSW (250°)16.1 mph27.6 mph0.00 inRainLight Rain
12:54 PM37.0 °F19.0 °F48 %29.12 in10.0 miWSW (250°)3.5 mph0.00 inOvercast
1:54 PM35.1 °F19.0 °F52 %29.15 in5.0 miWSW (240°)16.1 mph31.1 mph0.00 inSnowLight Snow
2:54 PM34.0 °F15.1 °F46 %29.18 in10.0 miWSW (250°)17.3 mph32.2 mph0.00 inOvercast
3:29 PM30.2 °F19.4 °F64 %29.21 in1.8 miWSW (250°)9.2 mph27.6 mph0.00 inSnowLight Snow
3:36 PM30.2 °F19.4 °F64 %29.22 in2.5 miWSW (240°)10.4 mph23.0 mph0.00 inSnowLight Snow
3:45 PM30.2 °F19.4 °F64 %29.23 in5.0 miWSW (240°)12.7 mph32.2 mph0.00 inSnowLight Snow
4:54 PM30.0 °F12.9 °F49 %29.29 in10.0 miWSW (250°)10.4 mph27.6 mph0.00 inMostly Cloudy
5:54 PM28.9 °F10.9 °F47 %29.34 in8.0 miWSW (250°)15.0 mph34.5 mph0.00 inOvercast
6:54 PM28.0 °F10.0 °F47 %29.37 in9.0 miWSW (250°)13.8 mph28.8 mph0.00 inSnowLight Snow
7:54 PM27.0 °F7.0 °F43 %29.42 in10.0 miWest (260°)13.8 mph25.3 mph0.00 inOvercast
8:54 PM25.0 °F3.9 °F41 %29.45 in10.0 miWest (270°)16.1 mph29.9 mph0.00 inOvercast
9:54 PM24.1 °F3.0 °F40 %29.48 in10.0 miWest (280°)11.5 mph23.0 mphOvercast
10:54 PM23.0 °F3.0 °F42 %29.50 in10.0 miWest (280°)11.5 mph26.5 mphOvercast
11:54 PM21.9 °F3.0 °F44 %29.51 in10.0 miWSW (250°)13.8 mph24.2 mphMostly Cloudy
Hourly data recorded from KMVL, located miles away from Underhill, Vermont







STORIES FROM OUR PARTNERS